Location: *
(37.9500°N, 27.3666°E)
Time: 05:38:04
(UTC+00:00)

Hubble Space Telescope - Visible Passes

Search period start: 09 December 2022 00:00
Search period end: 19 December 2022 00:00
Orbit: 530 x 534 km, 28.5° (Epoch: 08 December)

Date Brightness Start Highest point End Pass type
(mag) Time Alt. Az. Time Alt. Az. Time Alt. Az.
09 Dec 3.1 03:16:55 13° SSW 03:18:37 16° SSE 03:21:07 10° SE visible
10 Dec 2.9 03:05:14 17° S 03:05:50 17° S 03:08:35 10° SE visible
10 Dec 2.9 04:43:10 10° SW 04:46:18 21° S 04:49:26 10° SE visible
11 Dec 2.9 02:53:28 19° SSE 02:53:28 19° SSE 02:55:59 10° SE visible
11 Dec 2.8 04:30:27 10° SW 04:33:32 21° S 04:36:38 10° SE visible
12 Dec 3.2 02:41:37 17° SSE 02:41:37 17° SSE 02:43:19 10° SE visible
12 Dec 2.8 04:17:46 10° SW 04:20:47 20° S 04:23:47 10° SE visible
13 Dec 3.5 02:29:44 14° SE 02:29:44 14° SE 02:30:38 10° SE visible
13 Dec 2.8 04:05:06 10° SW 04:08:00 19° S 04:10:54 10° SE visible
14 Dec 3.9 02:17:49 10° SE 02:17:49 10° SE 02:17:54 10° SE visible
14 Dec 2.9 03:53:01 12° SW 03:55:13 17° S 03:57:57 10° SSE visible
15 Dec 2.9 03:41:05 14° SW 03:42:26 16° SSW 03:44:56 10° SSE visible
16 Dec 3.0 03:29:08 14° SSW 03:29:36 14° SSW 03:31:49 10° SSE visible
17 Dec 3.2 03:17:11 12° S 03:17:11 12° S 03:18:31 10° S visible
